www.pogodaiklimat.ru

Погода и климат >> Архив погоды >> Канада >> Spence bay


ПОГОДА в Spence bay

  • Прогноз погоды в Spence bay
  • Монитор погоды в Spence bay
  • Климат города

АРХИВ ПОГОДЫ в Spence bay

Время (UTC), дата Ветер
(напр.,м/с)
 
Видим.   Явления Облачность Т
(С)
Тd
(С)
f
(%)
Тe
(С)
Тes
(С)
Комфортность P
(гПа)
Po
(гПа)
Тmin
(С)
Tmax
(С)
R
(мм)
R24
(мм)
S
(см)
06 19.04 В 3 24 км слабый снег 5/1 600 м
[Sc Ac trans Ci fib]
-25.6 -29.0 73 -34 -34 опасность
обморожения
1011.9 1008.2 -29.5 -20.8 0.0 32
09 19.04 СВ 4 24 км 5/5 600 м
[]
-26.6 -30.1 72 -37 -37 опасность
обморожения
1012.7 1009.0
12 19.04 СВ 3 24 км ледяные иглы {снег} 3/1 600 м
[Sc Ac trans Ci fib]
-27.9 -31.5 71 -36 -36 опасность
обморожения
1013.9 1010.2 -29.9 -20.8 0.0 32
15 19.04 В 3 19 км 5/5 300 м
[]
-24.0 -27.4 73 -33 -31 опасность
обморожения
1014.7 1011.0
18 19.04 С 3 24 км слабый снег 8/6 300 м
[Sc Ac trans]
-20.6 -23.6 77 -28 -26 1015.4 1011.7 -29.9 -20.6 0.0 32
21 19.04 В 4 24 км 4/4 300 м
[]
-19.3 -22.2 78 -28 -26 1016.7 1013.0
00 20.04 В 4 24 км ледяные иглы {снег} 1/1 600 м
[Sc Ac trans Ci fib]
-20.2 -23.3 76 -29 -29 1017.8 1014.1 -29.9 -18.9 0.0 32
03 20.04 В 3 24 км 9/9 600 м
[]
-21.7 -24.7 77 -29 -29 1019.0 1015.3
06 20.04 В 2 24 км слабый снег 9/5 300 м
[Sc Ac trans]
-22.6 -25.7 76 -28 -28 1019.9 1016.2 -29.9 -18.9 0.0 32
09 20.04 В 2 24 км 9/9 300 м
[]
-19.8 -22.6 78 -26 -26 1020.9 1017.2
12 20.04 В 6 16 км слабый снег 10/10 300 м
[Sc]
-18.4 -21.2 79 -29 -29 1021.8 1018.1 -23.6 -18.9 0.0 32
15 20.04 СВ 6 20 км 8/8 300 м
[]
-18.2 -21.2 77 -29 -28 1022.8 1019.1
18 20.04 СВ 6 24 км слабый снег 9/8 300 м
[Sc]
-16.9 -20.8 72 -27 -27 1023.4 1019.7 -23.6 -16.8 0.0 32
21 20.04 СВ 6 24 км 9/9 300 м
[]
-16.8 -21.1 69 -27 -26 1024.2 1020.5
00 21.04 СВ 3 24 км {снег} 3/3 1000 м
[Sc Ac trans]
-18.3 -22.3 71 -26 -25 1025.2 1021.5 -23.6 -16.4 0.0 32
03 21.04 В 4 24 км 3/3 600 м
[]
-21.7 -24.9 75 -31 -31 опасность
обморожения
1025.8 1022.1
06 21.04 СВ 5 24 км 3/3 300 м
[Sc Ac trans]
-22.7 -25.8 76 -33 -33 опасность
обморожения
1026.6 1022.9 -25.0 -16.4 14
09 21.04 С 3 24 км 8/8 300 м
[]
-26.7 -29.7 76 -35 -35 опасность
обморожения
1027.6 1023.8
12 21.04 С 2 24 км 9/4 600 м
[Sc Ac As Ci sp]
-25.4 -28.8 73 -32 -32 опасность
обморожения
1027.8 1024.0 -29.1 -16.4 32
15 21.04 С 3 24 км 6/6 600 м
[]
-22.1 -26.0 71 -29 -28 1027.8 1024.0
18 21.04 ЮЗ 2 24 км ледяные иглы {снег} 1/1 600 м
[Sc Ac trans Ci fib]
-20.3 -24.4 70 -25 -18 1027.7 1023.9 -29.1 -19.9 0.0 32
21 21.04 ЮЗ 1 24 км 1/1 600 м
[]
-18.6 -23.0 68 -22 -16 1028.2 1024.3
00 22.04 Ю 1 24 км ясно -19.5 -23.0 74 -23 -21 1028.1 1024.2 -29.1 -18.4 0.0 32
03 22.04 ЮВ 1 24 км 3/3 600 м
[]
-22.3 -25.0 79 -26 -26 1027.9 1024.0
06 22.04 С 3 24 км слабый снег 8/8 600 м
[Sc]
-23.0 -26.1 76 -31 -31 опасность
обморожения
1027.4 1023.6 -29.1 -18.4 0.0 32
09 22.04 ЮЗ 1 19 км 9/9 600 м
[]
-24.1 -27.2 75 -28 -28 1027.7 1023.9
12 22.04 ЮЗ 2 24 км слабый снег 9/9 600 м
[Sc]
-24.0 -27.3 74 -31 -31 опасность
обморожения
1027.9 1024.1 -25.1 -18.4 0.2 32
15 22.04 С 2 24 км 8/8 600 м
[]
-21.8 -25.3 73 -28 -27 1028.1 1024.2
18 22.04 СВ 3 24 км ледяные иглы {снег} 6/5 600 м
[Sc Ac trans]
-18.9 -23.6 66 -26 -23 1028.6 1024.8 -25.1 -18.8 0.0 32
21 22.04 С 4 24 км 1/1 600 м
[]
-17.9 -22.3 68 -26 -22 1028.9 1025.1
00 23.04 С 3 24 км 1/1 1000 м
[Sc Ac trans]
-20.1 -24.1 70 -28 -27 1028.9 1025.0 -24.6 -17.9 0.0 32
03 23.04 СЗ 2 24 км 1/1 600 м
[]
-20.8 -24.5 72 -27 -27 1028.4 1024.6
06 23.04 С 3 24 км ледяные иглы {снег} 9/9 600 м
[Sc Ac trans]
-20.2 -23.6 74 -27 -27 1028.1 1024.4 -24.6 -17.9 0.0 32
09 23.04 СЗ 5 24 км 5/5 600 м
[]
-20.6 -24.0 74 -30 -30 1027.6 1023.9
12 23.04 16 км слабый снег н/о -17.8 -21.1 75 -27 -27 1026.9 1023.2 -24.1 -17.9 0.0 32
15 23.04 С 6 24 км 9/9 600 м
[]
-14.9 -19.7 67 -24 -24 1026.7 1023.0
18 23.04 С 6 24 км слабый снег 9/3 1000 м
[Sc Ac As Cs]
-12.9 -17.1 71 -22 -20 1026.6 1022.9 -24.1 -12.9 0.0 32
21 23.04 СЗ 5 24 км 9/9 1000 м
[]
-12.6 -16.2 74 -20 -20 1026.5 1022.8
00 24.04 З 2 24 км слабый снег 9/9 600 м
[Sc Ac As Ci fib]
-13.1 -16.2 77 -18 -18 1026.0 1022.3 -21.7 -12.4 0.0 32
03 24.04 СЗ 4 9000 м 6/6 600 м
[]
-18.5 -21.8 75 -27 -27 1025.6 1021.9
06 24.04 ЮЗ 2 24 км слабый снег 5/5 600 м
[Sc Ac trans]
-20.4 -23.8 74 -26 -26 1025.2 1021.5 -21.7 -12.4 0.2 32
09 24.04 В 3 24 км 6/6 600 м
[]
-22.6 -25.5 77 -30 -30 1025.2 1021.5
12 24.04 В 2 24 км ледяные иглы {снег} 8/8 600 м
[Sc]
-24.4 -27.7 74 -30 -30 1025.3 1021.6 -25.0 -12.4 0.0 32
15 24.04 Ю 2 24 км 9/9 300 м
[]
-22.8 -26.1 74 -29 -29 1025.3 1021.6
18 24.04 штиль 0 24 км слабый снег 9/9 600 м
[Sc Ac trans]
-17.4 -21.5 70 -17 -16 1024.5 1020.8 -25.0 -16.9 0.0 32
21 24.04 ЮЗ 4 24 км 9/9 1000 м
[]
-15.2 -19.2 71 -23 -22 1024.2 1020.5
00 25.04 З 5 24 км слабый снег 9/9 300 м
[Sc Ac trans]
-16.0 -19.2 76 -25 -25 1023.5 1019.8 -25.0 -14.9 0.0 32
03 25.04 З 4 24 км 9/9 600 м
[]
-18.1 -21.2 77 -27 -27 1023.1 1019.4
06 25.04 ЮЗ 3 24 км ледяные иглы {снег} 9/9 600 м
[Sc]
-20.1 -23.2 76 -27 -27 1023.0 1019.3 -25.0 -14.9 0.0 32
09 25.04 Ю 4 4800 м 8/8 600 м
[]
-21.1 -24.0 77 -30 -30 1023.2 1019.5
12 25.04 9000 м слабый снег н/о -22.4 -25.3 77 -33 -33 опасность
обморожения
1023.2 1019.5 -22.5 -14.9 0.0 32
15 25.04 Ю 5 24 км 1/1 300 м
[]
-24.3 -27.7 73 -36 -33 опасность
обморожения
1022.7 1019.0
18 25.04 Ю 5 24 км ледяные иглы {снег} 1/1 300 м
[Sc]
-22.3 -25.6 74 -33 -30 опасность
обморожения
1022.1 1018.4 -24.5 -19.9 0.0 32
21 25.04 Ю 5 24 км 1/1 1500 м
[]
-20.1 -23.3 76 -30 -27 1021.2 1017.5
00 26.04 ЮВ 4 24 км {снег} 1/1 1500 м
[Sc As trans Ci fib]
-19.4 -23.4 70 -28 -27 1019.3 1015.6 -24.5 -19.2 0.0 32
03 26.04 ЮВ 5 24 км ясно -19.6 -24.1 67 -30 -30 1017.7 1014.0

 

Местоположение метеостанции Spence bay (Канада): широта 69.55 долгота -93.58 высота над уровнем моря 28 м.

В архиве по умолчанию представлена погода в Spence bay за последнюю неделю. Архивные данные за месяц целиком и за предыдущие месяцы, начиная с января 2011 года, Вы можете получить, выбрав интересующий диапазон дат из раскрывающегося списка и нажав кнопку "Ввод!".

Внимание! Время в таблицах - всемирное. Для получения местного времени необходимо прибавить поправку, которая в Spence bay равна -6 ч.

Смотрите также архив погоды в соседних городах и на ближайших метеорологических станциях:

Погода в Shepherd Bay (Канада) (81 км)
Погода в Gjoa Haven Climate (Канада) (136 км)
Погода в Kugaaruk climate (Канада) (188 км)
Погода в Pelly Bay (Канада) (198 км)
Погода в Hat Island (Канада) (291 км)
Погода в Back River MAPS (Канада) (405 км)
Погода в Wager Bay (Канада) (444 км)
Погода в Cambridge Bay Gsn (Канада) (454 км)
Погода в Cambridge Bay Arpt (Канада) (454 км)
Погода в Ellice River AWS (Канада) (486 км)

Пояснения к столбцам:

Ветер - указаны скорость ветра в м/с - средняя за 10 мин, порывы в срок и между сроками (в фигурных скобках) и направление, откуда дует ветер: С - северный, СВ - северо-восточный, В - восточный, ЮВ - юго-восточный, Ю - южный, ЮЗ - юго-западный, З - западный, СЗ - северо-западный.
Видимость - горизонтальная дальность видимости в метрах или километрах. При видимости от 1 до 10 км при отсутствии осадков обычно наблюдается дымка, при ухудшении видимости до 1 км и менее - туман. В сухую погоду видимость может ухудшаться дымом, пылью или мглою.
Явления - указаны атмосферные явления, наблюдавшиеся в срок или в последний час перед сроком; фигурными скобками обозначены явления, наблюдавшиеся между сроками (за 1-3 часа до срока); квадратными скобками обозначены град или гололедные отложения с указанием их диаметра в мм.
Облачность - указаны через наклонную черту общая и нижняя облачность в баллах и высота нижней границы облаков в метрах; квадратными скобками обозначены формы облаков: Ci - перистые, Cs - перисто-слоистые, Cc - перисто-кучевые, Ac - высококучевые, As - высокослоистые, Sc - слоисто-кучевые, Ns - слоисто-дождевые, Cu - кучевые, Cb - кучево-дождевые. Подробнее классификацию облаков см. в Атласе облаков (PDF).
T - Температура воздуха - температура, измеренная на высоте 2 м над землей.
Td - Температура точки росы - температура, при понижении до которой содержащийся в воздухе водяной пар достигнет насыщения.
f - Относительная влажность воздуха - влажноcть воздуха, измеренная на высоте 2 м над землей.
Te - Эффективная температура - температура, которую ощущает одетый по сезону человек в тени. Характеристика душности погоды. При расчете учитывается влияние влажности воздуха и скорости ветра на теплоощущения человека.
Tes - Эффективная температура на солнце - температура, которую ощущает человек, с поправкой на солнечный нагрев. Характеристика знойности погоды. Зависит от высоты солнца над горизонтом, облачности и скорости ветра. Ночью, в пасмурную погоду, а также при ветре 12 м/с и более поправка равна нулю.
P - Атмосферное давление - приведенное к уровню моря атмосферное давление.
Po - Атмосферное давление - измеренное на уровне метеостанции атмосферное давление.
Tmin - Минимальная температура - минимум температуры воздуха на высоте 2 м над землей.
Tmax - Максимальная температура - максимум температуры воздуха на высоте 2 м над землей.
R - Количество осадков - Количество выпавших осадков за период времени, мм. При наведении курсора мыши на число - период времени, за который выпало указанное количество осадков.
R24 - Количество осадков - Количество выпавших осадков за 24 часа, мм.
S - Снежный покров - Высота снежного покрова, см. При наведении курсора мыши на число - состояние снежного покрова и степень покрытия местности в баллах.